This is the latest recevied weather packets stored in our database for station/object KI2K. If no packets are shown the sender has not sent any weather packets the latest 10 day(s).
| Time | Temp. | Humidity | Pressure | Rain* | Wind** | Luminosity | Snow |
|---|---|---|---|---|---|---|---|
| 1777463257 | 11.67° C | 99% | 1011.3 hPa | 0 mm | - | 31 W/m² | - |
| 1777462954 | 11.67° C | 99% | 1011 hPa | 0 mm | - | 16 W/m² | - |
| 1777462650 | 11.67° C | 99% | 1011 hPa | 0 mm | - | 16 W/m² | - |
| 1777462345 | 11.67° C | 99% | 1010.6 hPa | 0 mm | - | 14 W/m² | - |
| 1777462041 | 11.67° C | 99% | 1010.6 hPa | 0 mm | - | 7 W/m² | - |
| 1777461739 | 11.67° C | 99% | 1010.6 hPa | 1.27 mm | - | 2 W/m² | - |
| 1777461434 | 11.67° C | 99% | 1010.8 hPa | 3.05 mm | - | 2 W/m² | - |
| 1777461131 | 11.67° C | 99% | 1010.7 hPa | 1.78 mm | - | 0 W/m² | - |
| 1777460825 | 11.67° C | 99% | 1010.8 hPa | 0 mm | - | 2 W/m² | - |
| 1777460522 | 11.67° C | 99% | 1010.8 hPa | 0 mm | - | 3 W/m² | - |
| 1777460217 | 11.67° C | 99% | 1010.8 hPa | 0 mm | - | 0 W/m² | - |
| 1777459915 | 11.67° C | 99% | 1010.4 hPa | 0 mm | - | 0 W/m² | - |
| 1777459612 | 11.67° C | 99% | 1010.5 hPa | 1.27 mm | - | 0 W/m² | - |
| 1777459308 | 11.67° C | 99% | 1010.6 hPa | 1.27 mm | - | 0 W/m² | - |
| 1777459007 | 11.67° C | 99% | 1010.8 hPa | 0 mm | - | 0 W/m² | - |
| 1777458703 | 11.67° C | 99% | 1010.7 hPa | 0 mm | - | 0 W/m² | - |
| 1777458399 | 11.67° C | 99% | 1010.9 hPa | 0 mm | - | 0 W/m² | - |
| 1777458096 | 11.67° C | 99% | 1010.8 hPa | 0 mm | - | 0 W/m² | - |
| 1777457792 | 11.67° C | 99% | 1011 hPa | 0 mm | - | 0 W/m² | - |
| 1777457491 | 11.67° C | 99% | 1011 hPa | 0 mm | - | 0 W/m² | - |
| 1777457187 | 11.67° C | 99% | 1011 hPa | 0 mm | - | 0 W/m² | - |
| 1777456883 | 11.67° C | 99% | 1011 hPa | 0 mm | - | 0 W/m² | - |
| 1777456578 | 11.67° C | 99% | 1010.8 hPa | 0 mm | - | 0 W/m² | - |
| 1777456274 | 11.67° C | 99% | 1010.9 hPa | 0 mm | - | 0 W/m² | - |
| 1777455970 | 11.67° C | 99% | 1010.7 hPa | 0 mm | - | 0 W/m² | - |
* Rain latest hour (hover to see other rain measurements)
** Current wind speed in m/s (hover to see current wind gust speed)